Погода в Кодиаке

США     57°48′03″N   152°23′04″W
темп.,
°C
ветер,
м/с
пор.,
м/с
влажн.,
%
обл.,
%
осадки,
мм/ч
давл.,
гПа
погр.,
м
25 июля, вс
вс2501:00+8ссз119839 0.0 102027
04:00+7зсз119834 0.0 102033
07:00+8сз009852 0.0 102047
10:00+11вюв118747 0.0 1019298
13:00+13вюв227538 0.0 1019630
16:00+14вюв337531 0.0 1018576
19:00+13юв337841 0.0 1018285
22:00+12ю228741 0.0 101738
26 июля, пн
пн2601:00+10зюз23927 0.0 101752
04:00+9зюз229513 0.0 101729
07:00+9з119422 0.0 101621
10:00+13ююв118022 0.0 1016394
13:00+15вюв226613 0.0 1016774
16:00+16юв226358 0.0 1015863
19:00+15юз126838 0.0 1015588
22:00+12зюз228676 0.0 101618
27 июля, вт
вт2701:00+10зюз11915 0.0 101616
04:00+10сз119278 0.0 101613
07:00+10сз1193100 0.0 101713
10:00+13ссв0180100 0.0 1018251
13:00+15вюв217464 0.0 1019631
16:00+15вюв227451 0.0 1019485
19:00+15ссв117485 0.0 1019380
22:00+13с228365 0.0 102048
28 июля, ср
ср2801:00+11ссз118753 0.0 102115
04:00+9сз119368 0.0 102111
07:00+10з0192100 0.0 102111
10:00+13всв118197 0.0 1022298
13:00+14в227290 0.0 1022682
16:00+16вюв226891 0.0 1022660
19:00+15юв117387 0.0 1022376
22:00+12сз229078 0.0 102228
29 июля, чт
чт2901:00+10сз1195100 0.0 102313
04:00+9юз119586 0.0 102314
07:00+10ююз119498 0.0 102317
10:00+12ююв118180 0.0 1023321
13:00+14в227088 0.0 1023691
16:00+16вюв226778 0.0 1023738
19:00+15в117485 0.0 1023391
22:00+12сз118798 0.0 102323